Погода Фролово

Погода Фролово : погода сейчас, прогноз погоды и архив. Всё, что Вы хотите узнать о погоде Фролово!

Поиск расширенной информации на нашем сайте:

Другие новости

Новости СМИ2

Главная страница сайта

Новости сайта

03.07.2017

Напоминаем, что на нашем специализированном сайте Метеоцентр.Азия вы можете получить высокодетализированные автоматические прогнозы погоды по пунктам России, СНГ и мира в авиационном формате (включающие направление и скорость ветра, видимость, явления погоды, количество и форму облачности, нижнюю и верхнюю границу облачности).


Погода Фролово - сегодня

Время (UTC), дата Ветер
(°,м/с) 
Видим.   Явления Облачность Т
(°С)
Тd
(°С)
f(%) Тe
(°С)
Pmin
(гПа)
dP
(гПа)
Po
(мм)
O2
(г/м3)
Тmin Tmax R s Состояние
почвы
18 19.07.17 020 (С) 20000 м    3/0 верхняя 
[Ci fib]
+21.5 +11.5 53 +25  1013.5  0.5  750  278           
21 19.07.17 020 (С) 20000 м    ясно 
+18.7 +10.8 60 +21  1012.4  -1.2  749  280           
00 20.07.17 010 (С) 20000 м    8/8 1000 м 
[Cu hum]
+17.9 +11.3 65 +21  1011.5  -1  748  281           
03 20.07.17 010 (С) 10 км    10/0 средняя, верхняя 
[Ac und|Cs]
+18 +12 68 +23  1010.8  -0.6  748  280  +17.3        сухая 
06 20.07.17 010 (С) 4-10{11}  10 км    6/0 верхняя 
[Cs]
+24.3 +14.3 54 +32  1010.5  0.1  748  274           
09 20.07.17 030 (СВ) 4{11}  10 км    10/0 верхняя 
[Cs]
+28.5 +13.4 39 +35  1009.9  -0.4  747  270           
12 20.07.17 040 (СВ) 4{10}  10 км    10/0 верхняя 
[Cc]
+28.8 +12 35 +33  1008.9  -0.9  747  270           
15 20.07.17 010 (С) 10 км    10/0 верхняя 
[Cc]
+28 +14.3 43 +36  1008.8  -0.1  746  270    +29.3       
18 20.07.17 360 (С) 20000 м    10/0 верхняя 
[Cc]
+24.5 +13.9 52 +31  1010.3  1.3  747  274           
21 20.07.17 360 (С) 20000 м    ясно 
+21.6 +13.3 59 +28  1009.9  -0.5  747  276           
00 21.07.17 360 (С) 20000 м    8/0 средняя 
[Ac und]
+19.6 +12.4 63 +25  1010.3  0.2  747  279           
03 21.07.17 360 (С) 10 км    10/0 средняя 
[Ac As]
+20.1 +13.8 67 +27  1010.8  0.6  748  278  +19.6        сухая 
06 21.07.17 360 (С) 4-10{10}  10 км    8/0 средняя 
[Ac As]
+23.9 +13.8 53 +31  1011.6  0.9  748  275           
09 21.07.17 330 (СЗ) 4{10}  10 км    8/0 средняя 
[Ac As]
+26.7 +11.5 39 +30  1012.3  0.8  749  273           
12 21.07.17 360 (С) 10 км    6/0 средняя 
[Ac As]
+28.5 +9.7 31 +29  1012.4  0.2  749  272           
15 21.07.17 340 (С) 10 км    3/0 средняя 
[Ac trans]
+28 +6.8 26 +28  1012.4  0.1  749  273    +29.3       
18 21.07.17 010 (С) 20000 м    ясно 
+20.3 +9.1 49 +20  1014.4  1.7  750  280           
21 21.07.17 030 (СВ) 20000 м    ясно 
+17.1 +10 63 +19  1015  0.4  751  283           
00 22.07.17 тихо ()   20000 м    ясно 
+12.3 +9.5 83 +13  1015.4  0.2  751  288           
03 22.07.17 тихо ()   10 км    ясно 
+19.4 +11.6 61 +23  1015.7  0.6  751  280  +11.6        сухая 
06 22.07.17 280 (З) 10 км    ясно 
+26.4 +10.9 38 +29  1016  0.6  752  274           
09 22.07.17 250 (З) 10 км    ясно 
+29.7 +9.5 28 +30  1015.2  -0.6  751  271           
12 22.07.17 230 (ЮЗ) 10 км    ясно 
+31.2 +8.3 24 +31  1014  -1.1  750  270           
15 22.07.17 010 (С) 10 км    ясно 
+30.6 +8.4 25 +31  1013.1  -0.9  750  270    +31.8       
18 22.07.17 060 (СВ) 20000 м    ясно 
+20.5 +13 62 +26  1013.7  0.1  750  279           
Время (UTC), дата Ветер
(°,м/с) 
Видим.   Явления Облачность Т
(°С)
Тd
(°С)
f(%) Тe
(°С)
Pmin
(гПа)
dP
(гПа)
Po
(мм)
O2
(г/м3)
Тmin Tmax R s Состояние
почвы

Для получения пояснительной информации подведите курсор к названию столбца.

ПОГОДА Фролово - архив

Всё, что Вы хотите узнать о погоде Фролово - удобно и подробно!

Выберите нужную дату (начиная с 1 января 2015* года) и нажмите кнопку "Найти".
Будут отображены архивные сводки погоды по пункту Фролово, начиная с указанной даты.


Отображать данные в формате CSV (для использования в таблицах Excel)


Внимание! Наш архив погоды предназначен исключительно для личного некоммерческого использования в познавательных целях. Если Вам необходимы официальные справки о состоянии погоды (для производственных, юридических, коммерческих и т.п. целей), обращайтесь в органы Росгидромета.

*Примечание: данная дата относится к архиву по метеостанциям СССР (Россия, СНГ, Балтия).
Архив по метеостанциям Зарубежной Европы и Азии (кроме Китая) хранится 10 дней, по другим регионам земного шара (Китай, Африка, Америка, Австралия, Океания) - 1 день.

Фролово - район местоположения метеостанции


Название, широта, долгота, высота метеостанции:
Фролово 49.8°ш. 43.7°д. 119 м над ур. моря [Российская Федерация]

Дополнительная информация

В oтличие oт бoльшинства пoгoдных сайтoв мы публикуем пoдрoбную метеoинфoрмацию в детальнoм прoфессиoнальнoм фoрмате.

Характеристики температуры и влажнoсти вoздуха измеряются на высoте 2 м в тени вдали oт зданий и деревьев.
Скoрoсть ветра измеряется на высoте 10 м (на урoвне рoста челoвека скoрoсть ветра ниже в 1.5-2 раза). Если метеoстанция нахoдится в гoрoде или в лесу, тo скoрoсть ветра занижена на 2-4 м/с пo сравнению с oткрытым местoм. Скoрoсть ветра над акватoриями крупных рек и oзёр, а также на вершинах хoлмoв на 2-5 м/с выше, чем в oбычных услoвиях.
Атмoсфернoе давление в разных тoчках местнoсти мoжет значительнo oтличаться oт давления на метеoстанции, в зависимoсти oт услoвий рельефа (при пoдъёме на 10 м давление пoнижается примернo на 1 мм рт.ст.).